Notices

What's New in latest Release from April 7th, 2021:

- Updated Glossary, including Speed of Maximum Gust, and Total Hourly Precipitation

- Updated national and regional climate services offices contacts and prices information

- Addition of station inventory lists for 1981-2010, 1971-2000, and 1961-1990 Normals.

If you haven't already, please take our survey and provide feedback about our website: https://eccc.sondage-survey.ca/f/LanguageSelection.aspx?s=442ca660-fcf1-47c0-95a9-59707d6fd709

Hourly Data Report for November 10, 2019

VICTORIA UNIVERSITY CS
BRITISH COLUMBIA
Current Station Operator: ECCC - MSC

48°27'25.200" N
123°18'16.600" W
60.10 m
1018598
71783
WYJ

Download Data

Hourly Data (November 2019)
Hourly Data Report for November 10, 2019
TIME
LST
Temp Definition
°C
Dew Point Definition
°C
Rel Hum Definition
%
Precip. Amount Definition
mm

Wind Dir Definition
10's deg

Wind Spd Definition
km/h
Visibility Definition
km
Stn Press Definition
kPa
Hmdx Definition


Wind Chill Definition


Weather Definition


00:00 9.5 9.4 99 0.0 34 6   101.65     LegendNANA
01:00 9.6 9.4 99 0.0 34 3   101.66     LegendNANA
02:00 9.5 9.4 99 0.0 36 5   101.68     LegendNANA
03:00 9.5 9.4 100 0.2 1 6   101.68     LegendNANA
04:00 9.5 9.4 100 0.0 34 2   101.71     LegendNANA
05:00 9.4 9.3 100 0.0 34 6   101.75     LegendNANA
06:00 9.3 9.3 100 0.0 36 7   101.75     LegendNANA
07:00 9.3 9.2 99 0.0 36 5   101.77     LegendNANA
08:00 9.4 9.3 99 0.0 35 5   101.84     LegendNANA
09:00 9.8 9.6 99 0.0 1 7   101.89     LegendNANA
10:00 10.2 9.8 97 0.0 1 9   101.93     LegendNANA
11:00 10.8 9.9 94 0.0 33 8   101.96     LegendNANA
12:00 10.8 9.6 93 0.0 2 8   101.97     LegendNANA
13:00 10.9 9.4 90 0.0 1 8   101.98     LegendNANA
14:00 10.8 9.1 90 0.0 36 9   102.00     LegendNANA
15:00 10.1 8.7 91 0.0 1 9   101.98     LegendNANA
16:00 9.6 8.2 91 0.0 1 8   101.99     LegendNANA
17:00 9.0 8.1 94 0.0 36 7   102.01     LegendNANA
18:00 9.0 8.1 94 0.0 1 7   102.00     LegendNANA
19:00 9.0 8.4 96 0.0 1 9   102.02     LegendNANA
20:00 9.0 8.2 95 0.0 2 10   101.99     LegendNANA
21:00 8.9 8.2 95 0.0 35 6   102.02     LegendNANA
22:00 9.0 7.8 92 0.0 35 6   102.03     LegendNANA
23:00 9.5 7.2 86 0.0 1 9   102.00     LegendNANA

Notes on Data Quality.

Legend

  • E = Estimated
  • M = Missing
  • NA = Not Available*
  • [empty] = Indicates an unobserved value
Date modified: